15min,AgWx,beryljct,423,28AUG2018:00:00:00,54.3,13,54.3,53.9,54.0,55.2,53.4,46,51,41,0.665,34.0,35.9,31.9,0,0.8,225,0.1,3.3,-0.00023,-0.00032,73.4,75.6,19,0,0,50.0,17.32,0.00,0.00
15min,AgWx,beryljct,423,28AUG2018:00:15:00,53.9,12.99,56.9,55.4,56.4,62.1,53.6,40,51,22,0.659,31.8,36.4,22.8,0,0.3,273,4.3,2.0,-0.00034,-0.00052,73.1,75.5,19,0,0,50.8,17.32,0.00,0.00
15min,AgWx,beryljct,423,28AUG2018:00:30:00,53.6,12.98,53.5,54.7,53.4,55.4,51.4,49,59,39,0.572,34.7,38.0,30.4,3.047,1.1,244,18,3.3,-0.00019,-0.00026,72.8,75.4,19,0,0,49.9,17.32,0.00,0.00
15min,AgWx,beryljct,423,28AUG2018:00:45:00,53.5,12.98,55.7,57.2,55.2,57.2,53.7,37,43,29,0.466,29.1,32.5,24.7,1.6,2.8,200,2.7,4.3,0.00007,0.00014,72.5,75.2,19,0,0,51.6,17.32,0.00,0.00
15min,AgWx,beryljct,423,28AUG2018:01:00:00,53.4,12.95,54.9,54.6,55.0,59.5,48.8,42,66,24,0.614,30.9,37.9,22.0,4.319,2.7,91,78,5.5,0.00004,0.00010,72.2,75.1,19,0,0,51.7,17.32,0.00,0.00
15min,AgWx,beryljct,423,28AUG2018:01:15:00,52.7,12.95,50.0,49.1,50.4,54.4,48.7,57,65,40,0.688,35.7,37.7,30.5,4.889,3.0,36,9.4,5.5,-0.00001,0.00002,71.9,75.0,19,0,0,48.8,17.32,0.00,0.00
15min,AgWx,beryljct,423,28AUG2018:01:30:00,51.8,12.95,49.3,49.0,49.1,50.5,48.0,55,63,50,0.588,33.7,36.0,31.1,6.555,5.4,37,14,10.3,0.00015,0.00022,71.6,74.8,19,0,0,47.5,17.32,0.00,0.00
15min,AgWx,beryljct,423,28AUG2018:01:45:00,51.4,12.94,51.3,52.0,50.7,52.6,49.0,45,50,40,0.580,30.0,31.0,28.9,5.722,5.0,23,7.9,6.9,0.00020,0.00029,71.3,74.7,19,0,0,48.7,17.32,0.00,0.00
15min,AgWx,beryljct,423,28AUG2018:02:00:00,51.2,12.92,51.8,52.1,51.5,52.4,50.7,46,49,43,0.609,31.3,32.5,30.4,1.907,2.4,68,13,4.7,-0.00001,0.00002,71.0,74.6,19,0,0,48.7,17.32,0.00,0.00
15min,AgWx,beryljct,423,28AUG2018:02:15:00,51.2,12.92,53.0,53.8,52.5,54.4,51.1,53,57,46,0.770,35.9,37.9,32.1,5.152,4.4,70,13,7.3,0.00012,0.00019,70.7,74.4,19,0,0,49.9,17.32,0.00,0.00
15min,AgWx,beryljct,423,28AUG2018:02:30:00,51.6,12.92,54.8,54.5,54.5,55.1,53.8,52,54,50,0.764,37.2,37.9,36.6,2.784,2.1,47,50,5.5,-0.00006,-0.00005,70.4,74.3,19,0,0,51.0,17.32,0.00,0.00
15min,AgWx,beryljct,423,28AUG2018:02:45:00,51.9,12.92,54.3,54.0,54.2,54.9,53.8,56,59,52,0.823,38.7,39.7,37.7,4.998,4.1,56,9.8,6.2,0.00008,0.00015,70.1,74.1,19,0,0,51.5,17.32,0.00,0.00
15min,AgWx,beryljct,423,28AUG2018:03:00:00,52.4,12.91,54.7,54.3,54.5,54.9,54.0,58,59,57,0.847,40.0,40.5,39.5,6.16,5.3,57,9.9,8.9,0.00015,0.00022,69.8,74.0,19,0,0,52.5,17.32,0.00,0.00
15min,AgWx,beryljct,423,28AUG2018:03:15:00,52.7,12.9,54.3,54.0,54.2,54.5,53.7,59,61,58,0.853,40.3,40.6,40.0,3.946,4.4,61,12,6.8,0.00009,0.00015,69.6,73.9,19,0,0,52.0,17.32,0.00,0.00
15min,AgWx,beryljct,423,28AUG2018:03:30:00,52.7,12.89,53.7,53.7,53.5,54.1,53.2,61,62,60,0.847,40.4,40.5,40.2,2.324,3.3,64,9.0,6.6,0.00000,0.00004,69.3,73.7,19,0,0,51.1,17.32,0.00,0.00
15min,AgWx,beryljct,423,28AUG2018:03:45:00,52.3,12.88,54.2,54.4,53.9,54.5,53.1,59,62,57,0.830,40.0,40.4,39.6,2.653,1.3,64,20,4.0,-0.00018,-0.00024,69.1,73.6,19,0,0,50.1,17.32,0.00,0.00
15min,AgWx,beryljct,423,28AUG2018:04:00:00,52.1,12.88,54.3,54.0,54.0,54.5,53.2,58,60,57,0.818,39.8,40.0,39.4,1.578,2.2,39,11,4.3,-0.00008,-0.00008,68.8,73.4,19,0,0,50.6,17.32,0.00,0.00
15min,AgWx,beryljct,423,28AUG2018:04:15:00,51.7,12.87,54.3,54.1,54.1,54.4,53.7,57,58,57,0.813,39.3,39.5,39.1,1.206,1.2,44,14,2.6,-0.00019,-0.00025,68.6,73.3,19,0,0,49.7,17.32,0.00,0.00
15min,AgWx,beryljct,423,28AUG2018:04:30:00,51.3,12.87,53.9,53.7,53.7,54.1,53.5,58,58,57,0.810,39.3,39.4,39.0,2.192,1.2,47,7.1,2.2,-0.00019,-0.00025,68.4,73.1,19,0,0,49.5,17.32,0.00,0.00
15min,AgWx,beryljct,423,28AUG2018:04:45:00,50.8,12.87,53.1,52.8,53.0,53.7,52.4,59,60,57,0.803,39.0,39.2,38.8,1.337,0.5,59,3.8,2.2,-0.00029,-0.00043,68.2,73.0,19,0,0,48.2,17.32,0.00,0.00
15min,AgWx,beryljct,423,28AUG2018:05:00:00,50.4,12.84,52.5,52.1,52.3,53.0,52.0,60,61,59,0.789,38.8,39.0,38.4,1.732,1.9,48,14,2.8,-0.00012,-0.00014,67.9,72.8,19,0,0,48.5,17.32,0.00,0.00
15min,AgWx,beryljct,423,28AUG2018:05:15:00,50.0,12.86,51.3,50.4,51.2,52.2,50.4,62,64,59,0.800,38.6,38.8,38.4,2.543,2.4,57,13,3.7,0.00023,0.00041,67.7,72.7,19,0,0,48.3,17.32,0.00,0.00
15min,AgWx,beryljct,423,28AUG2018:05:30:00,49.6,12.86,50.6,50.5,50.4,50.8,50.0,64,65,63,0.796,38.7,38.9,38.6,1.841,2.6,72,8.0,3.5,0.00023,0.00040,67.5,72.5,19,0,0,47.6,17.32,0.00,0.00
15min,AgWx,beryljct,423,28AUG2018:05:45:00,49.2,12.84,50.7,50.6,50.4,50.7,50.1,64,65,63,0.791,38.6,38.8,38.4,1.535,2.2,72,7.7,3.0,0.00020,0.00035,67.2,72.4,19,0,0,47.4,17.32,0.00,0.00
15min,AgWx,beryljct,423,28AUG2018:06:00:00,48.7,12.85,50.7,50.4,50.5,50.8,50.2,63,63,62,0.771,38.3,38.6,37.9,3.179,2.4,52,5.3,3.7,0.00023,0.00040,67.0,72.2,19,2,0,47.4,17.32,0.00,0.00
15min,AgWx,beryljct,423,28AUG2018:06:15:00,48.5,12.86,50.1,48.9,50.0,50.5,48.9,62,65,61,0.766,37.7,37.9,37.4,2.126,2.3,51,8.5,3.3,0.00027,0.00043,66.8,72.1,19,10,0,47.8,17.32,0.00,0.00
15min,AgWx,beryljct,423,28AUG2018:06:30:00,48.4,12.87,50.4,49.4,50.1,50.7,48.9,63,65,61,0.784,37.8,38.3,37.6,1.951,1.7,67,13,3.3,0.00042,0.00056,66.6,72.0,19,47,0,52.6,17.32,0.00,0.00
15min,AgWx,beryljct,423,28AUG2018:06:45:00,49.0,12.86,50.6,50.9,50.3,51.2,49.4,64,66,62,0.799,38.4,38.9,38.2,2.17,1.7,63,5.9,3.2,0.00059,0.00073,66.4,71.8,19,89,0,59.4,17.32,0.00,0.00
15min,AgWx,beryljct,423,28AUG2018:07:00:00,50.2,12.88,51.4,51.7,51.2,51.7,50.7,64,66,63,0.836,39.4,40.1,38.8,1.841,2.0,78,9.4,3.1,0.00080,0.00098,66.2,71.7,19,132,0,64.9,17.31,0.00,0.00
15min,AgWx,beryljct,423,28AUG2018:07:15:00,51.8,12.88,52.5,52.8,52.3,53.0,51.6,64,68,61,0.868,40.5,41.8,39.1,3.047,2.6,67,15,5.5,0.00106,0.00130,66.0,71.6,19,180,0,68.6,17.31,0.00,0.00
15min,AgWx,beryljct,423,28AUG2018:07:30:00,53.4,12.97,54.0,54.4,53.7,54.4,52.8,61,64,58,0.855,40.5,41.4,39.5,5.064,4.9,62,9.3,6.9,0.00146,0.00187,65.8,71.4,19,231,0,69.0,17.31,0.00,0.00
15min,AgWx,beryljct,423,28AUG2018:07:45:00,55.3,13.1,55.5,55.8,55.3,55.9,54.4,58,62,54,0.875,40.5,41.8,38.9,4.099,5.4,56,11,9.3,0.00181,0.00230,65.6,70.8,18,283,0,71.4,17.31,0.00,0.00
15min,AgWx,beryljct,423,28AUG2018:08:00:00,57.1,13.31,56.7,57.0,56.5,57.2,55.8,57,63,53,0.898,41.6,43.6,40.4,5.064,5.3,57,12,8.0,0.00210,0.00261,65.5,71.1,19,336,0,74.3,17.31,0.00,0.00
15min,AgWx,beryljct,423,28AUG2018:08:15:00,58.9,13.64,57.9,58.3,57.7,58.3,56.9,54,59,48,0.978,41.0,44.0,38.6,4.538,5.8,62,11,8.6,0.00246,0.00308,65.4,71.0,19,390,0,76.2,17.30,0.00,0.00
15min,AgWx,beryljct,423,28AUG2018:08:30:00,60.5,14.09,59.1,59.5,58.9,59.5,58.2,53,58,48,0.911,42.0,44.3,39.6,6.73,5.6,63,12,9.4,0.00277,0.00339,65.3,70.9,19,442,0,79.0,17.30,0.00,0.00
15min,AgWx,beryljct,423,28AUG2018:08:45:00,62.1,14.27,60.2,60.4,60.1,60.5,59.6,49,54,44,0.795,40.6,43.0,38.6,10.79,8.1,51,13,12.4,0.00325,0.00414,65.3,70.7,19,493,0,78.8,17.30,0.00,0.00
15min,AgWx,beryljct,423,28AUG2018:09:00:00,63.3,14.27,61.3,61.8,61.1,61.9,60.5,46,52,41,0.867,39.9,42.9,37.5,10.65,8.8,44,13,12.8,0.00362,0.00464,65.3,70.6,19,542,0,79.4,17.30,0.00,0.00
15min,AgWx,beryljct,423,28AUG2018:09:15:00,64.6,14.24,62.4,62.9,62.3,63.3,61.7,43,47,39,0.823,39.5,41.4,37.5,14.07,9.6,39,14,14.1,0.00401,0.00516,65.4,70.5,19,589,0,80.5,17.29,0.00,0.00
15min,AgWx,beryljct,423,28AUG2018:09:30:00,65.7,14.19,62.9,63.3,62.8,63.3,62.4,43,48,39,0.916,40.1,43.1,37.5,8.59,9.7,48,13,15.2,0.00426,0.00544,65.5,70.4,19,635,0,81.4,17.29,0.00,0.00
15min,AgWx,beryljct,423,28AUG2018:09:45:00,66.8,14.18,63.7,64.2,63.6,64.2,63.2,45,51,41,0.958,42.0,44.8,39.6,11.62,8.6,51,14,14.1,0.00445,0.00554,65.6,70.3,19,678,0,83.8,17.29,0.00,0.00
15min,AgWx,beryljct,423,28AUG2018:10:00:00,67.8,14.23,64.2,64.4,64.3,64.6,63.9,46,52,41,0.987,43.0,46.4,40.0,8.92,7.9,57,13,12.0,0.00468,0.00573,65.9,70.2,19,718,0,85.4,17.29,0.00,0.00
15min,AgWx,beryljct,423,28AUG2018:10:15:00,68.6,14.19,64.7,64.7,64.7,65.0,64.4,45,51,38,0.945,42.7,46.3,38.6,6.029,8.4,58,15,12.6,0.00494,0.00606,66.1,70.1,19,755,0,86.0,17.29,0.00,0.00
15min,AgWx,beryljct,423,28AUG2018:10:30:00,69.4,14.14,65.4,65.7,65.4,65.9,64.7,45,53,38,0.976,43.2,48.5,39.6,8.2,7.2,57,17,11.8,0.00514,0.00620,66.5,70.1,19,791,0,88.0,17.28,0.00,0.00
15min,AgWx,beryljct,423,28AUG2018:10:45:00,70.1,13.69,66.2,66.9,66.1,66.9,65.6,43,48,38,1.015,42.9,46.2,39.4,4.275,6.7,62,16,10.7,0.00537,0.00644,66.8,70.0,18,822,0,89.7,17.28,0.00,0.00
15min,AgWx,beryljct,423,28AUG2018:11:00:00,71.1,13.67,67.2,68.0,67.2,68.0,66.7,44,53,36,1.129,44.4,50.2,38.9,3.595,5.6,64,22,8.9,0.00556,0.00654,67.3,70.0,19,851,0,92.3,17.28,0.00,0.00
15min,AgWx,beryljct,423,28AUG2018:11:15:00,72.1,13.64,67.9,68.2,68.0,68.3,67.7,42,50,34,1.034,44.0,49.0,38.5,8.55,6.0,75,19,9.7,0.00580,0.00684,67.7,70.0,19,877,0,93.5,17.28,0.00,0.00
15min,AgWx,beryljct,423,28AUG2018:11:30:00,72.9,13.64,68.8,69.3,68.8,69.3,68.2,41,47,31,1.096,43.9,47.5,37.1,5.897,4.7,87,17,8.6,0.00594,0.00690,68.2,70.0,19,898,0,96.2,17.28,0.00,0.00
15min,AgWx,beryljct,423,28AUG2018:11:45:00,74.0,13.6,69.8,70.3,69.8,70.8,69.0,38,47,29,0.890,42.6,49.4,36.6,5.437,3.2,80,17,7.6,0.00606,0.00689,68.8,70.0,19,915,0,100.7,17.28,0.00,0.00
15min,AgWx,beryljct,423,28AUG2018:12:00:00,75.7,13.6,71.0,70.7,71.1,72.3,70.1,34,45,26,0.716,40.9,48.6,35.0,2.324,2.5,66,41,6.4,0.00619,0.00697,69.5,70.0,19,928,0,104.0,17.27,0.00,0.00
15min,AgWx,beryljct,423,28AUG2018:12:15:00,77.0,13.6,71.5,71.7,71.5,72.7,70.8,33,45,25,0.937,40.3,49.2,33.5,4.472,2.3,49,63,5.3,0.00627,0.00703,70.1,70.1,18,938,0,105.1,17.27,0.00,0.00
15min,AgWx,beryljct,423,28AUG2018:12:30:00,77.9,13.58,72.0,72.1,72.1,73.2,71.4,35,49,25,0.887,42.6,51.4,34.7,3.529,2.6,57,21,5.2,0.00635,0.00715,70.8,70.2,18,941,0,103.2,17.27,0.00,0.00
15min,AgWx,beryljct,423,28AUG2018:12:45:00,78.4,13.54,72.3,72.6,72.5,73.6,71.9,33,44,24,0.687,41.5,49.4,34.6,0.833,3.4,60,18,6.9,0.00643,0.00736,71.5,70.3,19,940,0,100.4,17.27,0.00,0.00
15min,AgWx,beryljct,423,28AUG2018:13:00:00,79.1,13.51,73.1,73.4,73.2,74.0,72.5,33,44,24,0.916,42.3,49.6,34.9,2.302,2.9,66,17,6.1,0.00641,0.00726,72.2,70.4,19,937,0,102.2,17.27,0.00,0.00
15min,AgWx,beryljct,423,28AUG2018:13:15:00,80.1,13.49,74.0,74.8,74.1,74.9,73.5,32,45,23,0.915,42.1,51.5,34.4,2.806,2.9,44,31,5.2,0.00642,0.00729,72.9,70.5,19,930,0,100.9,17.27,0.00,0.00
15min,AgWx,beryljct,423,28AUG2018:13:30:00,81.4,13.44,75.4,75.2,75.5,76.6,74.5,28,37,22,0.981,39.7,47.4,34.8,4.297,2.3,36,34,5.0,0.00634,0.00714,73.7,70.7,19,917,0,103.6,17.27,0.00,0.00
15min,AgWx,beryljct,423,28AUG2018:13:45:00,82.8,13.4,75.3,76.0,75.5,76.4,74.9,30,42,23,0.881,41.4,50.9,34.5,2.214,2.4,50,22,6.0,0.00625,0.00707,74.4,70.8,19,901,0,102.2,17.27,0.00,0.00
15min,AgWx,beryljct,423,28AUG2018:14:00:00,83.9,13.4,75.8,76.5,75.9,76.5,75.6,33,44,25,0.822,44.4,52.6,37.2,1.929,2.7,66,15,4.2,0.00615,0.00698,75.1,71.0,19,880,0,101.9,17.27,0.00,0.00
15min,AgWx,beryljct,423,28AUG2018:14:15:00,84.9,13.36,76.3,76.5,76.6,76.9,76.2,35,45,21,1.149,46.8,53.7,33.8,3.968,3.1,62,15,5.1,0.00606,0.00692,75.8,71.2,19,858,0,100.0,17.27,0.00,0.00
15min,AgWx,beryljct,423,28AUG2018:14:30:00,85.6,13.34,77.0,78.8,77.0,79.0,76.4,34,47,24,0.913,45.9,54.8,37.7,0.789,2.8,66,24,5.7,0.00587,0.00670,76.4,71.4,19,832,0,98.2,17.27,0.00,0.00
15min,AgWx,beryljct,423,28AUG2018:14:45:00,86.3,13.38,77.7,78.8,77.9,78.8,76.9,30,42,18,0.869,44.0,52.6,31.6,0.548,2.6,102,25,7.7,0.00565,0.00645,77.0,71.7,19,799,0,99.6,17.27,0.00,0.00
15min,AgWx,beryljct,423,28AUG2018:15:00:00,86.8,13.3,79.4,79.1,79.6,80.8,78.7,24,38,17,1.203,39.0,51.1,31.3,5.086,2.6,59,61,6.7,0.00545,0.00628,77.4,71.9,19,764,0,99.0,17.27,0.00,0.00
15min,AgWx,beryljct,423,28AUG2018:15:15:00,86.8,13.33,78.3,78.5,78.6,79.5,77.3,28,43,16,1.019,42.2,54.0,28.9,4.932,6.0,130,25,12.1,0.00538,0.00670,77.6,72.1,19,695,0,92.5,17.27,0.00,0.00
15min,AgWx,beryljct,423,28AUG2018:15:30:00,86.2,13.36,80.7,83.2,80.4,83.2,77.8,19,32,12,0.471,33.5,45.6,25.1,15.94,10.1,171,25,19.5,0.00619,0.00832,77.7,72.3,19,696,0,89.1,17.28,0.00,0.00
15min,AgWx,beryljct,423,28AUG2018:15:45:00,86.3,13.39,83.6,83.9,83.7,84.8,82.3,12,15,11,0.467,26.6,31.9,23.1,14.16,9.3,202,17,16.6,0.00615,0.00838,77.7,72.5,19,659,0,91.0,17.27,0.00,0.00
15min,AgWx,beryljct,423,28AUG2018:16:00:00,86.5,13.33,83.2,84.4,83.4,84.4,82.6,12,17,11,0.482,26.0,33.6,22.7,13.83,9.5,207,21,14.8,0.00583,0.00807,77.7,72.7,19,609,0,89.3,17.27,0.00,0.00
15min,AgWx,beryljct,423,28AUG2018:16:15:00,86.5,13.35,82.8,83.5,83.0,84.6,80.1,12,20,10,0.434,25.4,35.7,21.8,10.33,10.0,198,22,16.6,0.00566,0.00797,77.8,72.9,18,573,0,87.9,17.28,0.00,0.00
15min,AgWx,beryljct,423,28AUG2018:16:30:00,86.2,13.42,81.8,83.6,81.9,83.7,79.1,14,23,10,0.476,26.6,38.7,21.2,6.577,9.1,198,27,14.4,0.00510,0.00718,78.0,73.0,18,527,0,85.9,17.27,0.00,0.00
15min,AgWx,beryljct,423,28AUG2018:16:45:00,86.0,13.41,82.3,80.1,82.8,83.6,80.1,12,19,9.9,0.621,24.3,35.0,20.8,9.47,9.6,195,19,17.3,0.00494,0.00713,78.1,73.2,19,479,0,85.5,17.27,0.00,0.00
15min,AgWx,beryljct,423,28AUG2018:17:00:00,85.2,13.4,81.3,82.1,81.2,82.3,79.1,13,20,9.9,0.408,24.8,34.3,19.9,12.08,10.7,196,22,17.2,0.00472,0.00701,78.3,73.3,18,429,0,83.0,17.27,0.00,0.00
15min,AgWx,beryljct,423,28AUG2018:17:15:00,84.8,13.4,81.9,81.6,82.0,82.5,81.6,10,11,9.4,0.359,21.1,23.1,18.5,9.67,10.4,209,11,13.9,0.00441,0.00671,78.5,73.5,19,378,0,82.6,17.27,0.00,0.00
15min,AgWx,beryljct,423,28AUG2018:17:30:00,84.2,13.43,81.6,81.6,81.7,82.2,81.2,11,13,9.9,0.395,22.1,25.8,19.8,13.83,10.4,198,15,14.0,0.00404,0.00630,78.6,73.6,19,325,0,81.4,17.27,0.00,0.00
15min,AgWx,beryljct,423,28AUG2018:17:45:00,83.5,13.43,80.5,81.1,80.6,81.8,78.8,12,16,9.7,0.421,23.2,28.9,19.0,5.941,9.6,193,16,18.0,0.00349,0.00556,78.7,73.8,19,271,0,79.9,17.27,0.00,0.00
15min,AgWx,beryljct,423,28AUG2018:18:00:00,82.6,13.43,80.4,80.4,80.6,81.1,80.2,12,13,11,0.407,22.9,25.2,20.7,11.86,9.9,204,14,16.4,0.00316,0.00523,78.7,73.9,19,220,0,79.1,17.27,0.00,0.00
15min,AgWx,beryljct,423,28AUG2018:18:15:00,81.8,13.27,79.7,79.2,79.9,80.5,79.2,11,13,11,0.398,21.7,24.5,19.5,9.93,9.6,198,11,14.8,0.00180,0.00237,78.7,74.0,19,170,0,77.7,17.27,0.00,0.00
15min,AgWx,beryljct,423,28AUG2018:18:30:00,80.7,13.23,78.6,78.5,78.8,79.3,78.2,11,12,10,0.380,20.7,22.2,19.1,10.35,9.3,200,9.9,13.4,0.00162,0.00215,78.7,74.2,19,123,0,76.3,17.28,0.00,0.00
15min,AgWx,beryljct,423,28AUG2018:18:45:00,79.5,13.21,77.7,77.3,78.0,78.7,77.2,12,12,11,0.376,20.7,22.1,19.6,8.7,9.6,198,8.4,15.0,0.00152,0.00202,78.6,74.3,19,79,0,75.1,17.28,0.00,0.00
15min,AgWx,beryljct,423,28AUG2018:19:00:00,77.9,13.17,75.6,74.4,76.0,77.4,74.4,12,14,11,0.379,20.5,22.2,18.3,5.59,7.3,196,6.4,11.7,0.00109,0.00151,78.4,74.4,19,32,0,72.4,17.28,0.00,0.00
15min,AgWx,beryljct,423,28AUG2018:19:15:00,75.5,13.16,71.8,70.2,72.3,74.4,70.2,14,16,13,0.393,21.2,22.5,20.0,4.801,5.3,189,5.1,6.8,0.00066,0.00098,78.3,74.5,19,6,0,68.5,17.28,0.00,0.00
15min,AgWx,beryljct,423,28AUG2018:19:30:00,72.6,13.14,68.1,67.4,68.5,70.3,67.4,17,19,15,0.429,22.2,23.6,20.8,3.946,4.3,193,7.6,5.0,0.00045,0.00069,78.0,74.6,19,1,0,64.2,17.28,0.00,0.00
15min,AgWx,beryljct,423,28AUG2018:19:45:00,69.9,13.13,67.3,66.3,67.3,67.9,66.3,19,20,17,0.447,23.1,24.5,21.9,2.609,3.1,191,7.5,4.4,0.00023,0.00040,77.7,74.2,18,0,0,62.4,17.28,0.00,0.00
15min,AgWx,beryljct,423,28AUG2018:20:00:00,67.9,13.13,66.8,67.6,66.6,68.0,65.4,20,23,16,0.400,23.6,27.4,20.2,4.056,2.7,208,5.1,4.2,0.00014,0.00026,77.4,74.7,19,0,0,61.3,17.29,0.00,0.00
15min,AgWx,beryljct,423,28AUG2018:20:15:00,66.5,13.11,67.9,68.6,67.7,69.1,65.0,18,25,15,0.430,23.1,28.4,18.7,3.595,3.3,187,16,4.0,0.00027,0.00045,77.1,74.8,19,0,0,62.6,17.29,0.00,0.00
15min,AgWx,beryljct,423,28AUG2018:20:30:00,65.6,13.11,65.4,65.4,65.7,68.7,64.6,23,25,18,0.487,26.6,28.6,23.8,4.428,4.3,201,3.7,5.3,0.00038,0.00058,76.7,74.8,19,0,0,61.8,17.29,0.00,0.00
15min,AgWx,beryljct,423,28AUG2018:20:45:00,64.8,13.08,66.3,65.9,66.0,66.5,65.4,22,23,21,0.493,26.6,27.3,25.4,3.266,4.2,195,3.5,5.1,0.00037,0.00057,76.3,73.9,18,0,0,61.8,17.29,0.00,0.00
15min,AgWx,beryljct,423,28AUG2018:21:00:00,63.7,13.09,61.4,62.4,61.7,66.5,58.5,29,37,22,0.460,28.9,32.7,25.1,4.735,5.7,164,17,8.2,0.00047,0.00066,75.9,74.8,19,0,0,59.1,17.29,0.00,0.00
15min,AgWx,beryljct,423,28AUG2018:21:15:00,62.5,13.08,62.9,62.1,62.8,63.8,61.7,23,26,21,0.499,24.8,27.3,23.1,5.393,4.2,173,8.8,5.6,0.00034,0.00052,75.6,74.8,19,0,0,59.0,17.29,0.00,0.00
15min,AgWx,beryljct,423,28AUG2018:21:30:00,61.2,13.06,58.5,58.0,58.9,62.0,57.0,32,40,25,0.489,28.9,34.0,25.2,4.341,5.4,171,22,7.3,0.00039,0.00055,75.2,74.8,19,0,0,56.8,17.29,0.00,0.00
15min,AgWx,beryljct,423,28AUG2018:21:45:00,60.3,13.05,59.7,57.0,59.7,62.2,57.0,27,39,22,0.625,25.6,32.6,22.3,5.546,4.0,172,17,5.5,0.00028,0.00043,74.9,74.8,19,0,0,56.4,17.29,0.00,0.00
15min,AgWx,beryljct,423,28AUG2018:22:00:00,59.0,13.05,56.2,56.7,56.1,58.0,53.9,39,49,28,0.597,31.1,35.3,25.2,1.491,2.2,4.8,69,5.9,-0.00001,0.00002,74.5,74.7,19,0,0,53.4,17.30,0.00,0.00
15min,AgWx,beryljct,423,28AUG2018:22:15:00,57.8,13.03,57.3,57.1,56.9,59.7,55.2,37,43,30,0.607,30.9,34.1,27.8,0.132,0.4,306,19,2.5,-0.00032,-0.00047,74.1,74.7,19,0,0,51.6,17.30,0.00,0.00
15min,AgWx,beryljct,423,28AUG2018:22:30:00,56.9,13.03,55.3,52.6,55.6,57.4,52.6,42,54,35,0.710,32.6,36.9,29.8,0.811,0.7,260,16,3.2,-0.00026,-0.00037,73.8,74.6,19,0,0,51.5,17.30,0.00,0.00
15min,AgWx,beryljct,423,28AUG2018:22:45:00,55.9,13.02,53.2,54.0,52.9,54.1,51.7,47,51,41,0.636,33.2,35.1,30.7,1.403,2.3,205,15,4.7,-0.00003,-0.00001,73.4,74.5,19,0,0,50.0,17.30,0.00,0.00
15min,AgWx,beryljct,423,28AUG2018:23:00:00,55.1,13.02,54.3,49.8,54.5,57.6,49.8,42,62,30,0.758,31.1,37.4,26.3,0,1.8,165,14,4.5,-0.00007,-0.00006,73.1,74.4,19,0,0,50.7,17.30,0.00,0.00
15min,AgWx,beryljct,423,28AUG2018:23:15:00,54.1,13,51.0,50.5,50.7,53.5,49.2,55,64,40,0.734,35.0,37.6,29.6,0.482,0.9,226,46,2.7,-0.00021,-0.00030,72.8,74.4,19,0,0,48.1,17.31,0.00,0.00
15min,AgWx,beryljct,423,28AUG2018:23:30:00,53.2,12.99,51.0,50.8,50.7,51.7,50.0,56,61,48,0.647,35.6,37.6,32.9,2.17,0.9,348,57,3.4,-0.00022,-0.00031,72.4,74.3,19,0,0,46.7,17.31,0.00,0.00
15min,AgWx,beryljct,423,28AUG2018:23:45:00,52.4,12.98,50.8,52.0,50.4,52.0,48.6,53,64,43,0.570,33.7,37.1,30.3,0,0.6,36,0.1,1.9,-0.00026,-0.00038,72.2,74.2,19,0,0,47.0,17.31,0.00,0.00
15min,AgWx,bigpiney,439,28AUG2018:00:00:00,46.5,12.76,43.9,43.1,41.1,44.4,38.9,79,85,72,0.737,35.0,36.9,33.2,2.039,4.0,225,11,5.2,-0.00001,0.00000,52.2,52.1,41,0,0,0.0,.,0.00,0.00
15min,AgWx,bigpiney,439,28AUG2018:00:15:00,45.4,12.74,38.9,38.1,40.9,43.5,37.9,79,84,74,0.656,34.9,36.7,33.1,6.248,4.2,253,6.6,6.4,-0.00001,0.00001,52.2,52.1,41,0,0,0.0,.,0.00,0.00
15min,AgWx,bigpiney,439,28AUG2018:00:30:00,44.4,12.74,37.6,37.8,38.1,38.7,37.4,86,88,84,0.655,34.1,35.4,33.3,5.393,5.5,239,5.4,6.6,-0.00001,-0.00001,52.2,52.1,41,0,0,0.0,.,0.00,0.00
15min,AgWx,bigpiney,439,28AUG2018:00:45:00,43.3,12.73,36.7,37.1,37.1,37.8,36.3,87,89,85,0.649,33.5,34.1,32.8,4.362,4.6,253,12,6.1,-0.00004,-0.00003,52.2,52.1,41,0,0,0.0,.,0.00,0.00
15min,AgWx,bigpiney,439,28AUG2018:01:00:00,42.4,12.73,37.4,37.0,36.8,37.3,36.2,86,88,85,0.633,33.1,33.6,32.5,4.538,5.1,250,4.9,6.8,-0.00002,-0.00002,52.1,52.1,41,0,0,0.0,.,0.00,0.00
15min,AgWx,bigpiney,439,28AUG2018:01:15:00,41.6,12.71,37.5,36.8,36.6,37.1,36.2,84,85,83,0.624,32.2,32.9,31.7,5.875,5.1,252,7.6,6.5,-0.00001,-0.00000,52.1,52.0,41,0,0,0.0,.,0.00,0.00
15min,AgWx,bigpiney,439,28AUG2018:01:30:00,41.0,12.69,37.0,36.9,37.0,37.4,36.4,82,84,81,0.603,32.1,32.6,31.7,4.187,5.9,254,7.7,7.6,0.00001,0.00002,52.0,52.0,41,0,0,0.0,.,0.00,0.00
15min,AgWx,bigpiney,439,28AUG2018:01:45:00,40.7,12.68,34.6,34.7,36.3,36.9,34.7,80,81,80,0.550,30.9,31.7,29.4,2.85,4.0,281,46,5.0,-0.00002,-0.00001,52.0,52.0,41,0,0,0.0,.,0.00,0.00
15min,AgWx,bigpiney,439,28AUG2018:02:00:00,40.2,12.69,36.8,36.8,36.2,37.3,34.3,79,83,75,0.559,30.2,30.9,28.7,1.688,2.4,220,69,4.5,-0.00006,-0.00007,52.0,52.1,41,0,0,0.0,.,0.00,0.00
15min,AgWx,bigpiney,439,28AUG2018:02:15:00,39.6,12.68,35.6,35.3,35.7,36.7,34.3,79,83,76,0.551,29.7,31.0,28.4,0,2.2,360,54,6.3,-0.00007,-0.00008,51.9,52.0,41,0,0,0.0,.,0.00,0.00
15min,AgWx,bigpiney,439,28AUG2018:02:30:00,39.0,12.67,37.2,36.6,36.4,37.0,35.3,78,81,75,0.553,30.2,31.0,29.5,2.565,3.5,315,19,5.8,-0.00002,-0.00002,51.8,52.0,41,0,0,0.0,.,0.00,0.00
15min,AgWx,bigpiney,439,28AUG2018:02:45:00,38.6,12.65,37.8,37.6,37.1,37.8,35.9,73,77,70,0.547,29.3,29.9,27.8,2.126,2.2,269,12,3.4,-0.00005,-0.00005,51.8,52.0,41,0,0,0.0,.,0.00,0.00
15min,AgWx,bigpiney,439,28AUG2018:03:00:00,38.1,12.63,30.3,30.2,32.0,37.6,30.2,81,86,71,0.482,26.7,29.2,25.6,3.99,4.0,193,12,5.8,-0.00002,-0.00001,51.7,52.0,41,0,0,0.0,.,0.00,0.00
15min,AgWx,bigpiney,439,28AUG2018:03:15:00,37.2,12.63,31.0,30.7,30.3,31.1,29.2,86,88,83,0.496,26.7,27.6,24.8,3.88,5.0,222,16,6.2,-0.00002,-0.00002,51.7,52.0,41,0,0,0.0,.,0.00,0.00
15min,AgWx,bigpiney,439,28AUG2018:03:30:00,36.4,12.62,29.4,30.2,30.5,31.2,29.8,86,88,85,0.481,26.8,27.7,26.0,4.209,3.0,221,21,4.2,-0.00006,-0.00006,51.6,52.0,41,0,0,0.0,.,0.00,0.00
15min,AgWx,bigpiney,439,28AUG2018:03:45:00,35.6,12.6,31.4,31.0,29.4,31.0,28.1,87,89,85,0.502,25.9,27.5,24.6,4.538,4.7,224,14,6.0,-0.00003,-0.00003,51.5,51.9,41,0,0,0.0,.,0.00,0.00
15min,AgWx,bigpiney,439,28AUG2018:04:00:00,34.9,12.59,34.2,33.1,31.0,33.1,29.7,85,88,83,0.532,26.9,29.2,25.2,2.894,3.6,266,43,4.7,-0.00004,-0.00004,51.5,52.0,41,0,0,0.0,.,0.00,0.00
15min,AgWx,bigpiney,439,28AUG2018:04:15:00,34.7,12.58,33.8,32.2,32.7,34.2,31.0,82,85,79,0.514,27.7,29.1,25.9,2.784,2.9,294,22,4.8,-0.00005,-0.00005,51.4,51.9,41,0,0,0.0,.,0.00,0.00
15min,AgWx,bigpiney,439,28AUG2018:04:30:00,34.6,12.58,30.2,29.4,31.8,33.7,28.9,81,86,78,0.473,26.7,28.6,24.0,1.008,2.9,348,84,6.3,-0.00005,-0.00005,51.3,51.9,41,0,0,0.0,.,0.00,0.00
15min,AgWx,bigpiney,439,28AUG2018:04:45:00,34.2,12.56,31.1,30.4,28.9,30.4,27.8,87,89,84,0.503,25.4,27.2,24.0,3.573,2.2,165,24,4.8,-0.00008,-0.00009,51.3,51.9,41,0,0,0.0,.,0.00,0.00
15min,AgWx,bigpiney,439,28AUG2018:05:00:00,33.6,12.54,27.5,28.1,29.6,30.7,28.1,86,88,84,0.450,25.8,27.3,24.5,4.45,2.7,178,17,4.8,-0.00006,-0.00007,51.2,51.8,41,0,0,0.0,.,0.00,0.00
15min,AgWx,bigpiney,439,28AUG2018:05:15:00,33.0,12.53,25.5,25.8,26.4,27.9,25.7,88,90,86,0.417,23.3,24.3,22.5,3.42,4.2,218,4.8,6.0,-0.00004,-0.00004,51.1,51.8,41,0,0,0.0,.,0.00,0.00
15min,AgWx,bigpiney,439,28AUG2018:05:30:00,32.2,12.51,30.3,30.7,27.8,31.5,25.6,89,92,84,0.484,25.1,28.5,22.7,3.793,3.8,237,6.8,4.6,-0.00005,-0.00005,51.0,51.8,41,1,0,0.0,.,0.00,0.00
15min,AgWx,bigpiney,439,28AUG2018:05:45:00,31.5,12.5,28.1,27.6,27.2,30.6,25.6,87,90,82,0.457,23.8,26.2,21.7,3.968,4.6,229,6.8,5.9,-0.00002,-0.00002,50.9,51.7,41,4,0,0.0,.,0.00,0.00
15min,AgWx,bigpiney,439,28AUG2018:06:00:00,31.1,12.53,23.9,24.1,25.6,27.7,24.1,88,92,85,0.387,22.6,25.0,20.7,1.447,2.7,130,44,5.5,-0.00020,-0.00018,50.9,51.8,41,27,0,0.0,.,0.00,0.00
15min,AgWx,bigpiney,439,28AUG2018:06:15:00,30.9,12.54,29.4,27.9,25.4,28.4,23.8,90,93,88,0.453,22.8,26.5,20.8,1.841,2.6,220,13,3.7,-0.00009,-0.00007,50.8,51.8,41,61,0,0.0,.,0.00,0.00
15min,AgWx,bigpiney,439,28AUG2018:06:30:00,31.2,12.54,29.0,28.6,28.9,30.3,28.0,87,91,85,0.474,25.6,27.7,24.6,3.332,2.6,219,17,3.3,0.00005,0.00008,50.7,51.7,41,97,0,0.0,.,0.00,0.00
15min,AgWx,bigpiney,439,28AUG2018:06:45:00,32.2,12.57,31.5,31.4,30.1,31.8,28.5,89,90,87,0.524,27.1,28.6,25.5,2.455,2.9,215,9.0,4.0,0.00021,0.00026,50.6,51.7,41,139,0,0.0,.,0.00,0.00
15min,AgWx,bigpiney,439,28AUG2018:07:00:00,33.7,12.66,37.7,37.1,33.3,37.1,31.2,88,90,82,0.620,30.0,32.4,28.2,0.482,1.4,231,49,2.9,0.00041,0.00046,50.5,51.7,41,184,0,0.0,.,0.00,0.00
15min,AgWx,bigpiney,439,28AUG2018:07:15:00,35.5,12.88,39.1,38.9,38.7,40.2,36.9,81,84,77,0.640,33.4,34.2,32.4,3.157,1.2,40,37,5.2,0.00070,0.00078,50.5,51.7,41,233,0,0.0,.,0.00,0.00
15min,AgWx,bigpiney,439,28AUG2018:07:30:00,37.4,13.34,42.6,42.5,40.6,42.6,38.9,77,80,73,0.683,33.9,35.5,32.7,0,0.6,91,24,3.1,0.00099,0.00107,50.4,51.6,41,284,0,0.0,.,0.00,0.00
15min,AgWx,bigpiney,439,28AUG2018:07:45:00,39.6,13.68,44.4,44.3,43.3,44.3,42.5,72,75,68,0.704,34.7,35.9,33.8,2.499,2.5,4.3,35,5.8,0.00131,0.00149,50.3,51.6,41,333,0,0.0,.,0.00,0.00
15min,AgWx,bigpiney,439,28AUG2018:08:00:00,42.3,13.95,46.3,45.6,45.1,45.8,44.4,66,73,60,0.636,34.6,36.4,32.7,3.31,3.3,9.3,24,5.3,0.00163,0.00189,50.2,51.5,41,382,0,0.0,.,0.00,0.00